Date String (YYYY-MM-DD hh:mm:ss) UTC,Instrument flags,absolute air pressure of the measurement (hPa),sample flow rate (lpm),inlet stack bypass flow (lpm),air temperature of the measurement (°C),ambient temperature measured by the external sensor (°C),aerosol sample conditioner tube jacket temperature (°C),OPC LED temperature (°C),internal box temperature (°C),relative humidity of the measurement (%),span deviation,mass concentration of particles derived from Lorenz-Mie calculation of OPC scattering (μg/m³),mass concentration of particles derived from Lorenz-Mie calculation of OPC scattering (μg/m³),mass concentration of particles derived from Lorenz-Mie calculation of OPC scattering (μg/m³)
DateTimeUTC,F1_M11,P_M11,Q1_M11,Q2_M11,T1_M11,T2_M11,T3_M11,T4_M11,T5_M11,U1_M11,ZSPAN_M11,X2_M11,X0_M11,X1_M11
2023-10-02 10:00:00,SystemResetWarning,0829.6,5.00,000.00,028.7,027.3,000.0,037.1,030.3,17.7,0000.0,0004.55,0012.31,0003.61
2023-10-02 10:01:00,SystemResetWarning,0829.6,5.01,000.00,028.7,027.3,000.0,037.1,030.3,17.7,0000.0,0004.59,0013.03,0003.62
2023-10-02 10:02:00,SystemResetWarning,0829.6,5.01,000.00,028.7,027.3,000.0,037.1,030.3,17.7,0000.0,0004.62,0013.46,0003.61
2023-10-02 10:03:00,SystemResetWarning,0829.6,5.00,000.00,028.7,027.3,000.0,037.1,030.2,17.8,0000.0,0004.62,0013.94,0003.60
2023-10-02 10:04:00,SystemResetWarning,0829.6,5.00,000.00,028.6,027.3,000.0,037.1,030.3,17.8,0000.0,0004.59,0013.65,0003.60
2023-10-02 10:05:00,SystemResetWarning,0829.6,4.99,000.00,028.6,027.2,000.0,037.1,030.3,17.6,0000.0,0004.60,0013.26,0003.59
2023-10-02 10:06:00,SystemResetWarning,0829.6,5.00,000.00,028.6,027.2,000.0,037.1,030.2,17.6,0000.0,0004.57,0013.41,0003.60
2023-10-02 10:07:00,SystemResetWarning,0829.6,5.01,000.00,028.6,027.2,000.0,037.1,030.2,17.6,0000.0,0004.53,0013.37,0003.60
2023-10-02 10:08:00,SystemResetWarning,0829.6,5.00,000.00,028.6,027.2,000.0,037.1,030.3,17.6,0000.0,0004.50,0013.35,0003.60
2023-10-02 10:09:00,SystemResetWarning,0829.6,5.01,000.00,028.6,027.2,000.0,037.1,030.3,17.5,0000.0,0004.50,0013.33,0003.60
2023-10-02 10:10:00,SystemResetWarning,0829.6,5.00,000.00,028.6,027.2,000.0,037.1,030.3,17.5,0000.0,0004.48,0013.73,0003.59
2023-10-02 10:11:00,SystemResetWarning,0829.6,4.99,000.00,028.6,027.2,000.0,037.1,030.2,17.6,0000.0,0004.49,0013.10,0003.58
2023-10-02 10:12:00,SystemResetWarning,0829.6,5.00,000.00,028.6,027.2,000.0,037.1,030.2,17.7,0000.0,0004.46,0012.11,0003.58
2023-10-02 10:13:00,SystemResetWarning,0829.6,5.00,000.00,028.6,027.2,000.0,037.1,030.2,17.7,0000.0,0004.41,0012.41,0003.58
2023-10-02 10:14:00,SystemResetWarning,0829.7,5.00,000.00,028.6,027.2,000.0,037.1,030.2,17.7,0000.0,0004.41,0011.99,0003.59
2023-10-02 10:15:00,SystemResetWarning,0829.6,5.00,000.00,028.6,027.2,000.0,037.1,030.2,17.8,0000.0,0004.42,0012.10,0003.60
2023-10-02 10:16:00,SystemResetWarning,0829.6,5.00,000.00,028.6,027.2,000.0,037.1,030.2,17.9,0000.0,0004.45,0012.48,0003.60
2023-10-02 10:17:00,SystemResetWarning,0829.6,5.01,000.00,028.6,027.2,000.0,037.1,030.2,17.8,0000.0,0004.47,0012.83,0003.60
2023-10-02 10:18:00,SystemResetWarning,0829.6,5.01,000.00,028.6,027.2,000.0,037.1,030.2,18.0,0000.0,0004.54,0013.33,0003.61
2023-10-02 10:19:00,SystemResetWarning,0829.7,5.00,000.00,028.6,027.2,000.0,037.1,030.2,17.9,0000.0,0004.59,0013.36,0003.62
2023-10-02 10:20:00,SystemResetWarning,0829.7,5.00,000.00,028.6,027.2,000.0,037.1,030.2,17.6,0000.0,0004.64,0013.63,0003.63
2023-10-02 10:21:00,SystemResetWarning,0829.7,5.00,000.00,028.6,027.2,000.0,037.1,030.2,17.6,0000.0,0004.63,0013.43,0003.64
2023-10-02 10:22:00,SystemResetWarning,0829.7,5.00,000.00,028.6,027.2,000.0,037.1,030.2,17.6,0000.0,0004.58,0013.52,0003.65
2023-10-02 10:23:00,SystemResetWarning,0829.7,4.99,000.00,028.6,027.1,000.0,037.1,030.2,17.5,0000.0,0004.56,0013.49,0003.65
2023-10-02 10:24:00,SystemResetWarning,0829.7,4.99,000.00,028.6,027.1,000.0,037.1,030.2,17.3,0000.0,0004.62,0013.09,0003.66
2023-10-02 10:25:00,SystemResetWarning,0829.7,5.00,000.00,028.6,027.1,000.0,037.1,030.2,17.4,0000.0,0004.64,0013.36,0003.65
2023-10-02 10:26:00,SystemResetWarning,0829.7,5.00,000.00,028.6,027.1,000.0,037.1,030.2,17.5,0000.0,0004.63,0013.16,0003.64
2023-10-02 10:27:00,SystemResetWarning,0829.6,5.01,000.00,028.6,027.2,000.0,037.1,030.2,17.4,0000.0,0004.58,0012.69,0003.63
2023-10-02 10:28:00,SystemResetWarning,0829.7,5.00,000.00,028.6,027.2,000.0,037.1,030.2,17.5,0000.0,0004.57,0011.91,0003.62
2023-10-02 10:29:00,SystemResetWarning,0829.7,5.01,000.00,028.6,027.1,000.0,037.1,030.2,17.5,0000.0,0004.53,0011.43,0003.61
2023-10-02 10:30:00,SystemResetWarning,0829.7,4.99,000.00,028.6,027.1,000.0,037.1,030.2,17.6,0000.0,0004.54,0011.55,0003.61
2023-10-02 10:31:00,SystemResetWarning,0829.7,4.99,000.00,028.6,027.1,000.0,037.1,030.2,17.7,0000.0,0004.51,0011.16,0003.61
2023-10-02 10:32:00,SystemResetWarning,0829.7,5.00,000.00,028.5,027.1,000.0,037.1,030.1,17.8,0000.0,0004.53,0010.79,0003.60
2023-10-02 10:33:00,SystemResetWarning,0829.7,5.00,000.00,028.5,027.1,000.0,037.1,030.1,18.0,0000.0,0004.54,0010.54,0003.60
2023-10-02 10:34:00,SystemResetWarning,0829.7,5.01,000.00,028.5,027.1,000.0,037.1,030.1,18.1,0000.0,0004.58,0010.73,0003.59
2023-10-02 10:35:00,SystemResetWarning,0829.7,5.00,000.00,028.5,027.1,000.0,037.0,030.1,18.1,0000.0,0004.56,0010.73,0003.58
2023-10-02 10:36:00,SystemResetWarning,0829.7,5.01,000.00,028.5,027.1,000.0,037.1,030.1,18.1,0000.0,0004.50,0010.50,0003.58
2023-10-02 10:37:00,SystemResetWarning,0829.7,5.00,000.00,028.5,027.0,000.0,037.0,030.1,17.9,0000.0,0004.51,0011.02,0003.59
2023-10-02 10:38:00,SystemResetWarning,0829.7,5.00,000.00,028.5,027.0,000.0,037.0,030.1,17.8,0000.0,0004.53,0011.04,0003.60
2023-10-02 10:39:00,SystemResetWarning,0829.7,4.99,000.00,028.5,027.0,000.0,037.0,030.1,17.4,0000.0,0004.52,0011.35,0003.60
2023-10-02 10:40:00,SystemResetWarning,0829.7,4.99,000.00,028.5,027.0,000.0,037.0,030.1,17.5,0000.0,0004.54,0011.39,0003.61
2023-10-02 10:41:00,SystemResetWarning,0829.7,5.00,000.00,028.5,027.0,000.0,037.0,030.0,17.5,0000.0,0004.49,0011.03,0003.60
2023-10-02 10:42:00,SystemResetWarning,0829.7,5.01,000.00,028.4,027.0,000.0,037.0,030.0,17.5,0000.0,0004.44,0010.74,0003.60
2023-10-02 10:43:00,SystemResetWarning,0829.7,5.00,000.00,028.4,027.0,000.0,037.0,030.0,17.4,0000.0,0004.41,0010.73,0003.59
2023-10-02 10:44:00,SystemResetWarning,0829.7,5.00,000.00,028.4,027.0,000.0,037.0,029.9,17.4,0000.0,0004.42,0010.91,0003.59
2023-10-02 10:45:00,SystemResetWarning,0829.7,5.01,000.00,028.4,026.9,000.0,036.9,029.9,17.4,0000.0,0004.40,0010.84,0003.60
2023-10-02 10:46:00,SystemResetWarning,0829.6,5.00,000.00,028.4,026.9,000.0,036.9,029.9,17.4,0000.0,0004.37,0010.59,0003.59
2023-10-02 10:47:00,SystemResetWarning,0829.6,5.00,000.00,028.4,026.9,000.0,036.9,029.9,17.4,0000.0,0004.38,0010.83,0003.59
2023-10-02 10:48:00,SystemResetWarning,0829.6,4.99,000.00,028.4,026.9,000.0,036.9,029.9,17.5,0000.0,0004.35,0010.08,0003.58
2023-10-02 10:49:00,SystemResetWarning,0829.7,5.00,000.00,028.3,026.9,000.0,036.9,029.9,17.5,0000.0,0004.34,0009.96,0003.58
2023-10-02 10:50:00,SystemResetWarning,0829.7,4.99,000.00,028.3,026.9,000.0,036.9,029.9,17.6,0000.0,0004.34,0009.52,0003.59
2023-10-02 10:51:00,SystemResetWarning,0829.7,5.01,000.00,028.3,026.9,000.0,036.9,029.8,17.6,0000.0,0004.28,0008.88,0003.58
2023-10-02 10:52:00,SystemResetWarning,0829.7,5.01,000.00,028.3,026.9,000.0,036.9,029.8,17.7,0000.0,0004.28,0009.07,0003.58
2023-10-02 10:53:00,SystemResetWarning,0829.7,5.01,000.00,028.3,026.9,000.0,036.9,029.8,18.1,0000.0,0004.31,0009.32,0003.58
2023-10-02 10:54:00,SystemResetWarning,0829.7,5.00,000.00,028.3,026.8,000.0,036.8,029.8,18.2,0000.0,0004.35,0009.17,0003.59
2023-10-02 10:55:00,SystemResetWarning,0829.7,5.00,000.00,028.3,026.8,000.0,036.8,029.8,18.3,0000.0,0004.37,0009.18,0003.59
2023-10-02 10:56:00,SystemResetWarning,0829.7,4.99,000.00,028.2,026.8,000.0,036.8,029.8,18.2,0000.0,0004.37,0009.37,0003.60
2023-10-02 10:57:00,SystemResetWarning,0829.7,4.99,000.00,028.2,026.8,000.0,036.8,029.8,18.3,0000.0,0004.37,0009.98,0003.60
2023-10-02 10:58:00,SystemResetWarning,0829.7,5.00,000.00,028.2,026.8,000.0,036.8,029.8,18.3,0000.0,0004.36,0009.95,0003.60
2023-10-02 10:59:00,SystemResetWarning,0829.6,5.00,000.00,028.2,026.8,000.0,036.8,029.7,18.3,0000.0,0004.37,0010.13,0003.59
